Time,TemperatureF,DewpointF,PressureIn,WindDirection,WindDirectionDegrees,WindSpeedMPH,WindSpeedGustMPH,Humidity,HourlyPrecipIn,Conditions,Clouds,dailyrainin,SoftwareType,DateUTC
2013-03-21 00:10:00,24.8,19.2,29.67,ENE,67,0.0,-999.0,79,-99.99,,,0.00,Acu-Link.com,2013-03-21 04:10:00,
2013-03-21 00:26:00,23.9,18.4,29.66,NNE,22,0.0,-999.0,79,-99.99,,,0.00,Acu-Link.com,2013-03-21 04:26:00,
2013-03-21 00:41:00,23.2,17.7,29.67,ESE,112,0.0,-999.0,79,-99.99,,,0.00,Acu-Link.com,2013-03-21 04:41:00,
2013-03-21 01:26:00,22.5,16.1,29.67,NNE,22,0.0,-999.0,76,-99.99,,,0.00,Acu-Link.com,2013-03-21 05:26:00,
2013-03-21 01:42:00,22.1,16.9,29.67,NW,315,0.0,-999.0,80,-99.99,,,0.00,Acu-Link.com,2013-03-21 05:42:00,
2013-03-21 02:12:00,20.8,15.6,29.67,NW,315,0.0,-999.0,80,-99.99,,,0.00,Acu-Link.com,2013-03-21 06:12:00,
2013-03-21 02:28:00,20.3,15.1,29.67,East,90,0.0,-999.0,80,-99.99,,,0.00,Acu-Link.com,2013-03-21 06:28:00,
2013-03-21 02:43:00,19.9,15.3,29.68,SSW,202,0.0,-999.0,82,-99.99,,,0.00,Acu-Link.com,2013-03-21 06:43:00,
2013-03-21 02:58:00,19.8,15.2,29.67,SW,225,0.0,-999.0,82,-99.99,,,0.00,Acu-Link.com,2013-03-21 06:58:00,
2013-03-21 03:13:00,19.4,14.8,29.67,East,90,0.0,-999.0,82,-99.99,,,0.00,Acu-Link.com,2013-03-21 07:13:00,
2013-03-21 03:29:00,19.2,14.9,29.67,WNW,292,0.0,-999.0,83,-99.99,,,0.00,Acu-Link.com,2013-03-21 07:29:00,
2013-03-21 03:44:00,19.2,15.2,29.66,NW,315,0.0,-999.0,84,-99.99,,,0.00,Acu-Link.com,2013-03-21 07:44:00,
2013-03-21 03:59:00,19.0,15.0,29.66,East,90,0.0,-999.0,84,-99.99,,,0.00,Acu-Link.com,2013-03-21 07:59:00,
2013-03-21 04:14:00,18.7,14.7,29.66,SE,135,0.0,-999.0,84,-99.99,,,0.00,Acu-Link.com,2013-03-21 08:14:00,
2013-03-21 04:29:00,18.5,14.5,29.66,ENE,67,0.0,-999.0,84,-99.99,,,0.00,Acu-Link.com,2013-03-21 08:29:00,
2013-03-21 04:45:00,18.3,14.3,29.67,South,180,0.0,-999.0,84,-99.99,,,0.00,Acu-Link.com,2013-03-21 08:45:00,
2013-03-21 05:00:00,18.3,14.3,29.67,ESE,112,0.0,-999.0,84,-99.99,,,0.00,Acu-Link.com,2013-03-21 09:00:00,
2013-03-21 05:15:00,18.0,14.0,29.67,ESE,112,0.0,-999.0,84,-99.99,,,0.00,Acu-Link.com,2013-03-21 09:15:00,
2013-03-21 05:30:00,17.4,13.4,29.67,ESE,112,0.0,-999.0,84,-99.99,,,0.00,Acu-Link.com,2013-03-21 09:30:00,
2013-03-21 05:45:00,17.2,13.2,29.67,East,90,0.0,-999.0,84,-99.99,,,0.00,Acu-Link.com,2013-03-21 09:45:00,
2013-03-21 06:01:00,16.9,12.9,29.68,NE,45,0.0,-999.0,84,-99.99,,,0.00,Acu-Link.com,2013-03-21 10:01:00,
2013-03-21 06:16:00,16.0,12.0,29.67,NW,315,0.0,-999.0,84,-99.99,,,0.00,Acu-Link.com,2013-03-21 10:16:00,
2013-03-21 06:31:00,14.9,11.2,29.68,NNE,22,0.0,-999.0,85,-99.99,,,0.00,Acu-Link.com,2013-03-21 10:31:00,
2013-03-21 06:46:00,14.4,11.0,29.68,West,270,0.0,-999.0,86,-99.99,,,0.00,Acu-Link.com,2013-03-21 10:46:00,
2013-03-21 07:02:00,13.8,10.4,29.68,NW,315,0.0,-999.0,86,-99.99,,,0.00,Acu-Link.com,2013-03-21 11:02:00,
2013-03-21 07:17:00,13.1,9.7,29.69,WNW,292,0.0,-999.0,86,-99.99,,,0.00,Acu-Link.com,2013-03-21 11:17:00,
2013-03-21 07:32:00,13.1,9.7,29.69,ESE,112,0.0,-999.0,86,-99.99,,,0.00,Acu-Link.com,2013-03-21 11:32:00,
2013-03-21 08:03:00,14.5,11.1,29.69,NNE,22,0.0,-999.0,86,-99.99,,,0.00,Acu-Link.com,2013-03-21 12:03:00,
2013-03-21 08:18:00,15.8,12.1,29.70,NNE,22,0.0,-999.0,85,-99.99,,,0.00,Acu-Link.com,2013-03-21 12:18:00,
2013-03-21 08:33:00,16.9,12.6,29.69,ESE,112,0.0,-999.0,83,-99.99,,,0.00,Acu-Link.com,2013-03-21 12:33:00,
2013-03-21 08:48:00,18.3,14.3,29.69,ESE,112,0.0,-999.0,84,-99.99,,,0.00,Acu-Link.com,2013-03-21 12:48:00,
2013-03-21 09:04:00,21.6,16.7,29.69,SE,135,0.0,-999.0,81,-99.99,,,0.00,Acu-Link.com,2013-03-21 13:04:00,
2013-03-21 09:19:00,23.9,17.8,29.70,ESE,112,0.0,-999.0,77,-99.99,,,0.00,Acu-Link.com,2013-03-21 13:19:00,
2013-03-21 09:34:00,26.6,19.8,29.69,South,180,0.0,-999.0,75,-99.99,,,0.00,Acu-Link.com,2013-03-21 13:34:00,
2013-03-21 09:49:00,29.7,19.8,29.68,NE,45,0.0,-999.0,66,-99.99,,,0.00,Acu-Link.com,2013-03-21 13:49:00,
2013-03-21 10:04:00,32.5,21.7,29.68,ESE,112,0.0,-999.0,64,-99.99,,,0.00,Acu-Link.com,2013-03-21 14:04:00,
2013-03-21 10:20:00,35.1,21.4,29.67,SW,225,0.0,-999.0,57,-99.99,,,0.00,Acu-Link.com,2013-03-21 14:20:00,
2013-03-21 10:35:00,37.0,19.2,29.67,SW,225,0.0,-999.0,48,-99.99,,,0.00,Acu-Link.com,2013-03-21 14:35:00,
2013-03-21 10:50:00,39.2,19.1,29.67,SSW,202,0.0,-999.0,44,-99.99,,,0.00,Acu-Link.com,2013-03-21 14:50:00,
2013-03-21 11:05:00,38.8,20.8,29.67,East,90,0.0,-999.0,48,-99.99,,,0.00,Acu-Link.com,2013-03-21 15:05:00,
2013-03-21 11:21:00,39.7,18.5,29.65,East,90,0.0,-999.0,42,-99.99,,,0.00,Acu-Link.com,2013-03-21 15:21:00,
2013-03-21 11:51:00,42.3,20.3,29.64,NW,315,0.0,-999.0,41,-99.99,,,0.00,Acu-Link.com,2013-03-21 15:51:00,
2013-03-21 13:20:00,46.4,18.2,29.61,ESE,112,0.0,-999.0,32,-99.99,,,0.01,Acu-Link.com,2013-03-21 17:20:00,
2013-03-21 13:50:00,45.5,14.3,29.60,WNW,292,0.0,-999.0,28,-99.99,,,0.25,Acu-Link.com,2013-03-21 17:50:00,
2013-03-21 14:07:00,47.1,16.5,29.59,West,270,1.7,-999.0,29,-99.99,,,0.39,Acu-Link.com,2013-03-21 18:07:00,
2013-03-21 14:47:00,45.5,19.5,29.58,North,0,1.7,-999.0,35,-99.99,,,0.61,Acu-Link.com,2013-03-21 18:47:00,
2013-03-21 15:06:00,45.5,19.5,29.57,South,180,1.7,-999.0,35,-99.99,,,0.63,Acu-Link.com,2013-03-21 19:06:00,
2013-03-21 15:21:00,38.8,14.8,29.56,SSW,202,1.7,-999.0,37,-99.99,,,0.64,Acu-Link.com,2013-03-21 19:21:00,
2013-03-21 15:39:00,39.4,17.1,29.55,East,90,0.0,-999.0,40,-99.99,,,0.65,Acu-Link.com,2013-03-21 19:39:00,
2013-03-21 16:14:00,39.0,17.3,29.54,SSE,157,0.0,-999.0,41,-99.99,,,0.67,Acu-Link.com,2013-03-21 20:14:00,
2013-03-21 16:29:00,38.7,17.6,29.53,East,90,0.0,-999.0,42,-99.99,,,0.67,Acu-Link.com,2013-03-21 20:29:00,
2013-03-21 16:44:00,38.1,15.9,29.54,ESE,112,0.0,-999.0,40,-99.99,,,0.67,Acu-Link.com,2013-03-21 20:44:00,
2013-03-21 17:00:00,37.8,16.8,29.53,SSE,157,0.0,-999.0,42,-99.99,,,0.68,Acu-Link.com,2013-03-21 21:00:00,
2013-03-21 17:15:00,37.4,19.0,29.54,ESE,112,0.0,-999.0,47,-99.99,,,0.68,Acu-Link.com,2013-03-21 21:15:00,
2013-03-21 21:08:00,27.3,18.2,29.57,WNW,292,0.0,-999.0,68,-99.99,,,0.68,Acu-Link.com,2013-03-22 01:08:00,
2013-03-21 21:23:00,27.1,17.6,29.57,West,270,0.0,-999.0,67,-99.99,,,0.68,Acu-Link.com,2013-03-22 01:23:00,
2013-03-21 21:39:00,27.0,17.5,29.57,West,270,0.0,-999.0,67,-99.99,,,0.68,Acu-Link.com,2013-03-22 01:39:00,
2013-03-21 21:54:00,26.8,17.0,29.57,West,270,0.0,-999.0,66,-99.99,,,0.68,Acu-Link.com,2013-03-22 01:54:00,
2013-03-21 22:09:00,26.8,17.3,29.57,WSW,247,0.0,-999.0,67,-99.99,,,0.68,Acu-Link.com,2013-03-22 02:09:00,
2013-03-21 22:24:00,26.8,18.0,29.57,NW,315,0.0,-999.0,69,-99.99,,,0.68,Acu-Link.com,2013-03-22 02:24:00,
2013-03-21 22:39:00,27.1,18.3,29.58,SW,225,0.0,-999.0,69,-99.99,,,0.68,Acu-Link.com,2013-03-22 02:39:00,
2013-03-21 22:55:00,27.3,18.2,29.57,NW,315,0.0,-999.0,68,-99.99,,,0.68,Acu-Link.com,2013-03-22 02:55:00,
2013-03-21 23:10:00,27.7,17.8,29.57,East,90,1.1,-999.0,66,-99.99,,,0.68,Acu-Link.com,2013-03-22 03:10:00,
2013-03-21 23:25:00,27.9,18.4,29.57,NE,45,1.1,-999.0,67,-99.99,,,0.68,Acu-Link.com,2013-03-22 03:25:00,
2013-03-21 23:56:00,27.5,18.0,29.56,WNW,292,0.0,-999.0,67,-99.99,,,0.68,Acu-Link.com,2013-03-22 03:56:00,